Regional Weather Roundup
Issued by NWS Wakefield, VA

Home | Current Version | Previous Version | Text Only | Print | Product List | Glossary Off
Versions: 1 2 3 4 5 6 7 8 9 10 11 12 13 14 15 16 17 18 19 20 21 22 23 24 25 26 27 28 29 30 31 32 33 34 35 36 37 38 39 40 41 42 43 44 45 46 47 48 49 50

000
ASUS41 KAKQ 292215
RWRAKQ

REGIONAL WEATHER ROUNDUP
NATIONAL WEATHER SERVICE WAKEFIELD VA
600 PM EDT FRI JUL 29 2016

Note: "fair" indicates few or no clouds below 12,000 feet with no
significant weather and/or obstructions to visibility. * = Denotes
station may not report precipitation (e.g., rain,snow,etc.),
thunder or fog.

VAZ042-051-052>054-056-292300-
NORTHERN VIRGINIA

CITY           SKY/WX    TMP DP  RH WIND       PRES   REMARKS
WASH NATIONAL  PTSUNNY   88  70  55 S8        29.88R
DULLES         FAIR      88  67  49 NW6       29.89R
FORT BELVOIR   FAIR      90  68  48 NW5       29.88
QUANTICO       NOT AVBL
FREDERICKSBRG*   N/A     88  70  54 CALM      29.89R
STAFFORD*      FAIR      87  68  54 CALM      29.94R
WARRENTON      FAIR      90  61  38 CALM      29.90R
CULPEPER*      FAIR      88  69  53 W3        29.91S
MANASSAS*      MOSUNNY   88  68  51 VRB5      29.89R
LEESBURG*      FAIR      90  72  55 W3        29.90S HX  96
WINCHESTER     FAIR      88  64  45 CALM      29.90F
FRONT ROYAL*   FAIR      82  70  65 CALM      29.90F
LURAY*         NOT AVBL
$$

VAZ048-049-060>072-079>083-292300-
CENTRAL AND SOUTH CENTRAL VIRGINIA

CITY           SKY/WX    TMP DP  RH WIND       PRES   REMARKS
RICHMOND       FAIR      86  70  58 N8        29.90R
CHESTERFIELD*  FAIR      88  63  42 NW8       29.92R
PETERSBURG*    FAIR      88  69  53 W3        29.91R
HANOVER        FAIR      87  69  54 NW6       29.92R
TAPPAHANNOCK*  FAIR      86  68  55 CALM      29.90S
QUINTON*       FAIR      85  72  65 NW3       29.89R
CHARLOTTSVILLE CLOUDY    88  66  48 CALM      29.91S
GORDONSVILLE*  FAIR      86  71  59 CALM      29.91S
ORANGE*          N/A     86  68  54 CALM      29.93S
LOUISA*        PTSUNNY   90  73  58 CALM      29.91R HX  98
BUMPASS*       FAIR      86  72  64 CALM      29.91R
FARMVILLE*     NOT AVBL
CREWE*         NOT AVBL
FORT PICKETT*  FAIR      86  71  60 NW6       29.92S
CHASE CITY*    MOCLDY    86  71  61 CALM      29.92S
CLARKSVILLE*   FAIR      88  72  58 CALM      29.91S
SOUTH HILL*    FAIR      86  71  60 CALM      29.98R
LAWRENCEVILLE* FAIR      86  73  66 NW3       29.92R
EMPORIA*       FAIR      88  70  55 W6        29.92R
$$

VAZ088>098-292300-
SOUTHEAST VIRGINIA

CITY           SKY/WX    TMP DP  RH WIND       PRES   REMARKS
NORFOLK        PTSUNNY   84  73  69 NE8       29.89R
VIRGINIA BEACH PTSUNNY   90  73  57 N9        29.88R HX  98
NORFOLK NAVAL  PTSUNNY   85  73  67 NE6       29.90R
WEST POINT*    FAIR      84  69  60 NW3       29.91R
SALUDA*        FAIR      85  74  69 CALM      29.89R
NEWPORT NEWS   CLOUDY    86  74  67 N7        29.89R
LANGLEY AFB    CLOUDY    85  73  66 NE6       29.89R
FORT EUSTIS    PTSUNNY   89  75  62 VRB3      29.88R HX  99
WILLIAMSBURG*  FAIR      88  75  66 N5        29.90R HX  97
HR EXEC AP*    CLOUDY    84  73  70 N3        29.91R
FRANKLIN*      PTSUNNY   88  72  60 N5        29.90R
US460-WAKEFLD  FAIR      89  70  53 CALM      29.90R
$$

VAZ020-022-025-037-045-292300-
WEST CENTRAL AND SOUTHWEST VIRGINIA

CITY           SKY/WX    TMP DP  RH WIND       PRES   REMARKS
STAUNTON*      FAIR      82  66  56 CALM      29.96S
WAYNESBORO*    FAIR      82  66  58 CALM      29.96F
HOT SPRINGS VA FAIR      75  64  69 W3        30.09R
LYNCHBURG      FAIR      85  68  56 SE5       29.95S
DANVILLE       FAIR      88  67  49 NW6       29.93R
SOUTH BOSTON*  MOCLDY   N/A N/A N/A CALM      29.92R
MARTINSVILLE   FAIR      89  64  44 CALM      29.97R
ROANOKE        FAIR      88  66  48 W7        29.96S
BLACKSBURG     FAIR      82  68  63 SW5       30.04S
DUBLIN*        LGT RAIN  73  69  89 S8        30.04R
MARION*        PTSUNNY   79  68  69 NW6       30.07S
HILLSVILLE*    PTSUNNY   78  69  73 CALM      30.04R
RICHLANDS*     CLOUDY    74  71  87 CALM      30.05S
WISE*            N/A     68  64  88 W9        30.10R
ABINGDON*      FAIR      82  69  66 W9        30.02R
$$

MDZ021>025-VAZ099-100-292300-
SOUTHERN MARYLAND AND THE DELMARVA PENINSULA

CITY           SKY/WX    TMP DP  RH WIND       PRES   REMARKS
PATUXENT RIVER NOT AVBL
BAY BRIDGE APT SUNNY     86  72  62 W3        29.88R
LEONARDTOWN      N/A     86  68  54 CALM      29.90
DOVER          SUNNY     86  75  69 N6        29.86R
GEORGETOWN     PTSUNNY   84  70  62 NE5       29.89R
EASTON         MOSUNNY   86  75  70 N5        29.92R HX  95
CAMBRIDGE      SUNNY     84  68  58 NW5       29.88R
SALISBURY      NOT AVBL
OCEAN CITY     PTSUNNY   79  72  79 E6        29.88R
WALLOPS ISLAND CLOUDY    82  74  76 SE9       29.89R
ACCOMACK*      NOT AVBL
$$

NCZ012>017-030>032-292300-
NORTH CENTRAL AND EASTERN NORTH CAROLINA

CITY           SKY/WX    TMP DP  RH WIND       PRES   REMARKS
ROANOKE RAPIDS FAIR      88  72  58 N5        29.90R
RALEIGH        MOSUNNY   91  68  46 VRB6      29.92R HX  95
ELIZABETH CITY PTSUNNY   89  72  56 W8        29.88R HX  96
AHOSKIE*       SUNNY     85  74  68 CALM      29.90R
EDENTON*       MOSUNNY   90  71  53 NW6       29.89R HX  95
CURRITUCK*     PTSUNNY   86  75  70 NE8       29.89R HX  95
KILL DEVIL HLS   N/A    N/A N/A N/A MISG        N/A
MANTEO           N/A     84  78  84 NE7       29.88R
CAPE HATTERAS  MOSUNNY   84  79  85 SW12      29.88S HX  96
TARBORO*       FAIR      89  74  60 NW3       29.91R HX  98
GOLDSBORO      SUNNY     94  68  42 NW8       29.88S HX  99
WASHINGTON     SUNNY     89  73  58 NW5       29.88S HX  97
GREENVILLE     SUNNY     90  73  58 N6        29.91R HX  98
NEW BERN       PTSUNNY   92  73  53 NW9       29.89R HX 100
WILMINGTON     SUNNY     94  71  47 W14       29.90R HX 101
$$

VAZ048-292300-
ELSEWHERE

CITY           SKY/WX    TMP DP  RH WIND       PRES   REMARKS
HARRISBURG PA  MOSUNNY   90  70  51 S3        29.86R HX  95
BALTIMORE      MOSUNNY   86  70  58 SE6       29.87R
ANNAPOLIS      SUNNY     85  73  67 SE6       29.87S
ANDREWS AFB    FAIR      86  71  62 SE5       29.88R
PHILADELPHIA   MOSUNNY   88  67  49 SE5       29.86S
GREENSBORO     MOSUNNY   89  65  44 CALM      29.94R
ROCKY MOUNT    MOSUNNY   91  72  53 W8        29.90R HX  98
$$

VAZ100-292300-
MARINE

STATION/POSITION TIME  TEMP    WIND        PRES    WAVE   SWELL
                       AIR SEA DIR/SP/G            HT/PER HT/PER
                 (UTC) (F)     (DEG/KT/KT) (MB)    (FT/S) (FT/S)
BRANDYWINE LGT   2100   74     150/ 12/ 13   N/A
CAPE MAY NJ      2100   77 75  110/  8/ 10 1011.3R
LEWES DE         2100   79 76   90/  9/ 10 1011.5R
OCEAN-CITY-INLET 2100   78 74  110/  4/  6 1011.9R
WACHAPREAGUE VA  2100   84 85  360/  5/  7 1011.5R
THOMAS POINT MD  2200   83 84  180/  5/  6 1013.2R
GOOSES REEF MD   2200   85 87  110/  4/  4 1013.0R   0
COVE POINT MD    2100   82      60/  3/  3 1012.1F
SOLOMONS ISLAND  2100   87 85  260/  3/  4   N/A
BISHOPS HEAD MD  2100   85     350/  5/  6 1011.7R
PINEY POINT MD   2100          310/  6/  7   N/A
POTOMAC MD       2200   85 85  350/  6/  8 1011.0R   0
CAMBRIDGE MD     2100   85 87  330/  6/  8 1010.7R
LEWISETTA VA     2100   85 87  330/  4/  6 1011.3S
RAPPAHANNOCK LGT 2100          340/ 10/ 11 1012.3R
STINGRAY PT      2200   85 87  300/  6/  8 1012.5R   1/ 3
YORK RVR RNG VA  2100   84      10/  7/  8 1011.2R
YORKTOWN VA      2100   84 85  310/  5/  8 1011.3R
JAMESTOWN VA     2200   86 89  340/  6/  8   N/A     0
DOMINION TERM VA 2100   84     340/  5/  8 1011.8R
KIPTOPEKE VA     2100      82  350/ 11/ 12   N/A
CHES BAY BRIDGE  2100   81 80   20/  7/  8 1011.6R
CAPE HENRY VA    2100   81     350/  8/ 10   N/A
WILLOUBY STN VA  2100   81     110/  6/  6   N/A
CAPE HENRY BUOY  2112      80                N/A     2/14
1ST LANDING BUOY 2200   81 80   20/  4/  6 1011.7R   1/ 4
CAPE CHARLES BUO 2126      79                N/A     1/ 6
OFFSHORE WE BUOY 2121      83                N/A     2/ 5
64NM E OF VA BCH 2150   83 84  280/  6/  6 1011.5R   3/ 6   3/ 6
DUCK PIER NC     2100   83 68  100/  5/  5 1010.9R
44100 DUCK FRF   2105      82                N/A     2/ 6
44056 DUCK FRF   2111      79                N/A     1/14
OREGON INLET NC  2100   86 84   30/  4/  5 1011.4R
HATTERAS NC      2100   85 84  210/ 12/ 15 1011.6S
DIAMOND SHLS NC  2150   86 86  230/ 19/ 23 1011.8S   3/ 4   2/ 8
CAPE LOOKOUT NC  2200   86     220/  9/ 11 1012.0R
$$



USA.gov is the U.S. government's official web portal to all federal, state and local government web resources and services.